Time,TemperatureF,DewpointF,PressureIn,WindDirection,WindDirectionDegrees,WindSpeedMPH,WindSpeedGustMPH,Humidity,HourlyPrecipIn,Conditions,Clouds,dailyrainin,SoftwareType,DateUTC
2013-02-21 00:01:00,19.0,19.0,29.99,NNW,334,0.0,1.0,98,0.00,,,0.00,,2013-02-21 08:01:00,
2013-02-21 00:11:00,19.0,19.0,29.99,NNW,334,0.0,1.0,98,0.00,,,0.00,,2013-02-21 08:11:00,
2013-02-21 00:21:00,20.0,20.0,30.00,NW,318,0.0,1.0,98,0.00,,,0.00,,2013-02-21 08:21:00,
2013-02-21 00:31:00,19.0,19.0,30.00,NW,319,0.0,1.0,98,0.00,,,0.00,,2013-02-21 08:31:00,
2013-02-21 00:41:00,19.0,19.0,30.00,NW,319,0.0,1.0,98,0.00,,,0.00,,2013-02-21 08:41:00,
2013-02-21 00:51:00,19.0,19.0,30.01,NW,319,0.0,1.0,98,0.00,,,0.00,,2013-02-21 08:51:00,
2013-02-21 01:01:00,18.0,17.0,30.01,NW,318,0.0,0.0,97,0.00,,,0.00,,2013-02-21 09:01:00,
2013-02-21 01:11:00,18.0,17.0,30.01,NW,318,0.0,0.0,97,0.00,,,0.00,,2013-02-21 09:11:00,
2013-02-21 01:22:00,20.0,20.0,30.01,West,268,0.0,3.0,99,0.00,,,0.00,,2013-02-21 09:22:00,
2013-02-21 01:31:00,22.0,22.0,30.01,West,269,0.0,1.0,99,0.00,,,0.00,,2013-02-21 09:31:00,
2013-02-21 01:41:00,22.0,22.0,30.01,West,269,0.0,1.0,99,0.00,,,0.00,,2013-02-21 09:41:00,
2013-02-21 01:51:00,19.0,18.0,30.01,NNW,344,1.0,2.0,97,0.00,,,0.00,,2013-02-21 09:51:00,
2013-02-21 02:01:00,19.0,18.0,30.02,NNW,343,0.0,1.0,97,0.00,,,0.00,,2013-02-21 10:01:00,
2013-02-21 02:11:00,19.0,18.0,30.02,NNW,343,0.0,1.0,97,0.00,,,0.00,,2013-02-21 10:11:00,
2013-02-21 02:21:00,20.0,20.0,30.02,NNW,343,0.0,1.0,98,0.00,,,0.00,,2013-02-21 10:21:00,
2013-02-21 02:31:00,19.0,18.0,30.02,NNW,343,0.0,1.0,97,0.00,,,0.00,,2013-02-21 10:31:00,
2013-02-21 02:41:00,19.0,18.0,30.02,NNW,343,0.0,1.0,97,0.00,,,0.00,,2013-02-21 10:41:00,
2013-02-21 02:51:00,18.0,17.0,30.02,NNW,343,0.0,1.0,97,0.00,,,0.00,,2013-02-21 10:51:00,
2013-02-21 03:00:00,20.0,20.0,30.02,NNW,344,0.0,2.0,98,0.00,,,0.00,,2013-02-21 11:00:00,
2013-02-21 03:10:00,20.0,20.0,30.02,NNW,344,0.0,2.0,98,0.00,,,0.00,,2013-02-21 11:10:00,
2013-02-21 03:21:00,20.0,20.0,30.02,NNW,344,0.0,2.0,98,0.00,,,0.00,,2013-02-21 11:21:00,
2013-02-21 03:31:00,20.0,20.0,30.02,NW,307,0.0,1.0,98,0.00,,,0.00,,2013-02-21 11:31:00,
2013-02-21 03:41:00,20.0,20.0,30.02,NW,307,0.0,1.0,98,0.00,,,0.00,,2013-02-21 11:41:00,
2013-02-21 03:51:00,21.0,21.0,30.03,NW,307,0.0,1.0,98,0.00,,,0.00,,2013-02-21 11:51:00,
2013-02-21 04:01:00,21.0,21.0,30.03,NW,307,0.0,1.0,98,0.00,,,0.00,,2013-02-21 12:01:00,
2013-02-21 04:11:00,21.0,21.0,30.03,NW,307,0.0,1.0,98,0.00,,,0.00,,2013-02-21 12:11:00,
2013-02-21 04:21:00,21.0,21.0,30.03,NNW,331,1.0,1.0,98,0.00,,,0.00,,2013-02-21 12:21:00,
2013-02-21 04:32:00,21.0,21.0,30.03,NNW,333,0.0,2.0,98,0.00,,,0.00,,2013-02-21 12:32:00,
2013-02-21 04:42:00,21.0,21.0,30.03,NNW,333,0.0,2.0,98,0.00,,,0.00,,2013-02-21 12:42:00,
2013-02-21 04:52:00,21.0,21.0,30.03,North,355,0.0,2.0,98,0.00,,,0.00,,2013-02-21 12:52:00,
2013-02-21 05:01:00,21.0,21.0,30.03,North,354,0.0,2.0,98,0.00,,,0.00,,2013-02-21 13:01:00,
2013-02-21 05:12:00,21.0,21.0,30.03,North,354,0.0,2.0,98,0.00,,,0.00,,2013-02-21 13:12:00,
2013-02-21 05:22:00,21.0,21.0,30.03,NW,323,0.0,1.0,99,0.00,,,0.00,,2013-02-21 13:22:00,
2013-02-21 05:31:00,21.0,21.0,30.03,NW,324,0.0,1.0,98,0.00,,,0.00,,2013-02-21 13:31:00,
2013-02-21 05:41:00,21.0,21.0,30.03,NW,324,0.0,1.0,98,0.00,,,0.00,,2013-02-21 13:41:00,
2013-02-21 05:51:00,20.0,20.0,30.03,NW,323,0.0,0.0,98,0.00,,,0.00,,2013-02-21 13:51:00,
2013-02-21 06:02:00,21.0,21.0,30.03,NW,324,0.0,1.0,99,0.00,,,0.00,,2013-02-21 14:02:00,
2013-02-21 06:11:00,21.0,21.0,30.03,NW,324,0.0,1.0,99,0.00,,,0.00,,2013-02-21 14:11:00,
2013-02-21 06:21:00,21.0,21.0,30.02,NW,323,0.0,1.0,98,0.00,,,0.00,,2013-02-21 14:21:00,
2013-02-21 06:32:00,21.0,21.0,30.02,NW,323,0.0,1.0,98,0.00,,,0.00,,2013-02-21 14:32:00,
2013-02-21 06:41:00,21.0,21.0,30.02,NW,323,0.0,1.0,98,0.00,,,0.00,,2013-02-21 14:41:00,
2013-02-21 06:52:00,22.0,22.0,30.02,NW,323,1.0,1.0,99,0.00,,,0.00,,2013-02-21 14:52:00,
2013-02-21 07:01:00,22.0,22.0,30.02,NW,323,0.0,0.0,99,0.00,,,0.00,,2013-02-21 15:01:00,
2013-02-21 07:12:00,22.0,22.0,30.02,NW,323,0.0,0.0,99,0.00,,,0.00,,2013-02-21 15:12:00,
2013-02-21 07:21:00,22.0,22.0,30.03,NW,323,0.0,0.0,98,0.00,,,0.00,,2013-02-21 15:21:00,
2013-02-21 07:31:00,22.0,22.0,30.03,North,350,1.0,2.0,99,0.00,,,0.00,,2013-02-21 15:31:00,
2013-02-21 07:41:00,22.0,22.0,30.03,North,350,1.0,2.0,99,0.00,,,0.00,,2013-02-21 15:41:00,
2013-02-21 07:51:00,22.0,22.0,30.03,North,2,1.0,4.0,98,0.00,,,0.00,,2013-02-21 15:51:00,
2013-02-21 08:01:00,22.0,22.0,30.04,NE,46,0.0,3.0,98,0.00,,,0.00,,2013-02-21 16:01:00,
2013-02-21 08:12:00,23.0,23.0,30.04,NNW,340,0.0,1.0,98,0.00,,,0.00,,2013-02-21 16:12:00,
2013-02-21 08:21:00,23.0,23.0,30.04,NNW,340,0.0,1.0,98,0.00,,,0.00,,2013-02-21 16:21:00,
2013-02-21 08:31:00,24.0,24.0,30.04,NNW,340,0.0,0.0,99,0.00,,,0.00,,2013-02-21 16:31:00,
2013-02-21 08:42:00,24.0,24.0,30.04,NNW,340,0.0,0.0,98,0.00,,,0.00,,2013-02-21 16:42:00,
2013-02-21 08:51:00,24.0,24.0,30.04,NNW,340,0.0,0.0,98,0.00,,,0.00,,2013-02-21 16:51:00,
2013-02-21 09:01:00,25.0,25.0,30.03,NNW,340,0.0,0.0,98,0.00,,,0.00,,2013-02-21 17:01:00,
2013-02-21 09:11:00,25.0,25.0,30.03,NNW,340,0.0,0.0,98,0.00,,,0.00,,2013-02-21 17:11:00,
2013-02-21 09:21:00,25.0,25.0,30.04,NNW,346,0.0,2.0,98,0.00,,,0.00,,2013-02-21 17:21:00,
2013-02-21 09:32:00,26.0,25.0,30.04,North,4,1.0,2.0,96,0.00,,,0.00,,2013-02-21 17:32:00,
2013-02-21 09:41:00,26.0,25.0,30.04,North,4,1.0,2.0,96,0.00,,,0.00,,2013-02-21 17:41:00,
2013-02-21 09:52:00,26.0,25.0,30.04,NNW,347,0.0,1.0,96,0.00,,,0.00,,2013-02-21 17:52:00,
2013-02-21 10:01:00,26.0,25.0,30.04,NNE,32,1.0,3.0,95,0.00,,,0.00,,2013-02-21 18:01:00,
2013-02-21 10:11:00,26.0,25.0,30.04,NNE,32,1.0,3.0,95,0.00,,,0.00,,2013-02-21 18:11:00,
2013-02-21 10:21:00,27.0,26.0,30.04,NNE,21,1.0,2.0,95,0.00,,,0.00,,2013-02-21 18:21:00,
2013-02-21 10:31:00,27.0,26.0,30.03,North,11,1.0,3.0,94,0.00,,,0.00,,2013-02-21 18:31:00,
2013-02-21 10:42:00,27.0,26.0,30.03,North,11,1.0,3.0,94,0.00,,,0.00,,2013-02-21 18:42:00,
2013-02-21 10:51:00,28.0,27.0,30.03,NNE,28,2.0,3.0,94,0.00,,,0.00,,2013-02-21 18:51:00,
2013-02-21 11:01:00,28.0,27.0,30.03,North,2,0.0,2.0,94,0.00,,,0.00,,2013-02-21 19:01:00,
2013-02-21 11:11:00,28.0,27.0,30.03,North,2,0.0,2.0,94,0.00,,,0.00,,2013-02-21 19:11:00,
2013-02-21 11:21:00,29.0,27.0,30.03,NNW,345,1.0,2.0,94,0.00,,,0.00,,2013-02-21 19:21:00,
2013-02-21 11:31:00,29.0,28.0,30.02,NNW,345,0.0,1.0,95,0.00,,,0.00,,2013-02-21 19:31:00,
2013-02-21 11:41:00,29.0,28.0,30.02,NNW,345,0.0,1.0,95,0.00,,,0.00,,2013-02-21 19:41:00,
2013-02-21 11:51:00,29.0,28.0,30.02,NNW,345,1.0,2.0,95,0.00,,,0.00,,2013-02-21 19:51:00,
2013-02-21 12:01:00,29.0,28.0,30.01,NNW,348,1.0,2.0,97,0.00,,,0.00,,2013-02-21 20:01:00,
2013-02-21 12:11:00,29.0,28.0,30.01,North,350,1.0,2.0,97,0.00,,,0.00,,2013-02-21 20:11:00,
2013-02-21 12:21:00,29.0,28.0,30.01,North,350,1.0,2.0,97,0.00,,,0.00,,2013-02-21 20:21:00,
2013-02-21 12:31:00,29.0,29.0,30.01,NE,42,1.0,2.0,98,0.00,,,0.00,,2013-02-21 20:31:00,
2013-02-21 12:41:00,29.0,29.0,30.01,NE,42,1.0,2.0,98,0.00,,,0.00,,2013-02-21 20:41:00,
2013-02-21 12:52:00,29.0,29.0,30.00,NE,46,1.0,2.0,98,0.00,,,0.00,,2013-02-21 20:52:00,
2013-02-21 13:02:00,30.0,29.0,30.00,NE,41,1.0,2.0,98,0.00,,,0.00,,2013-02-21 21:02:00,
2013-02-21 13:11:00,30.0,29.0,29.99,NE,39,1.0,2.0,98,0.00,,,0.00,,2013-02-21 21:11:00,
2013-02-21 13:21:00,30.0,29.0,29.99,NE,39,1.0,2.0,98,0.00,,,0.00,,2013-02-21 21:21:00,
2013-02-21 13:31:00,30.0,30.0,29.99,NNE,26,0.0,2.0,99,0.00,,,0.00,,2013-02-21 21:31:00,
2013-02-21 13:41:00,32.0,32.0,29.99,NNE,12,0.0,0.0,100,0.00,,,0.00,,2013-02-21 21:41:00,
2013-02-21 13:51:00,32.0,32.0,29.99,NNE,12,0.0,0.0,100,0.00,,,0.00,,2013-02-21 21:51:00,
2013-02-21 14:01:00,33.0,33.0,29.99,SW,236,2.0,4.0,99,0.00,,,0.00,,2013-02-21 22:01:00,
2013-02-21 14:11:00,33.0,33.0,29.99,SW,236,2.0,4.0,99,0.00,,,0.00,,2013-02-21 22:11:00,
2013-02-21 14:21:00,33.0,32.0,29.99,SW,222,4.0,7.0,98,0.00,,,0.00,,2013-02-21 22:21:00,
2013-02-21 14:31:00,33.0,32.0,29.99,SSW,212,3.0,6.0,98,0.00,,,0.00,,2013-02-21 22:31:00,
2013-02-21 14:41:00,33.0,32.0,29.99,SSW,212,3.0,6.0,98,0.00,,,0.00,,2013-02-21 22:41:00,
2013-02-21 14:52:00,33.0,32.0,29.99,SW,217,8.0,10.0,97,0.00,,,0.00,,2013-02-21 22:52:00,
2013-02-21 15:01:00,33.0,32.0,29.99,WSW,248,5.0,12.0,96,0.00,,,0.00,,2013-02-21 23:01:00,
2013-02-21 15:11:00,33.0,32.0,29.99,WSW,248,5.0,12.0,96,0.00,,,0.00,,2013-02-21 23:11:00,
2013-02-21 15:21:00,33.0,32.0,29.98,SW,227,3.0,6.0,96,0.00,,,0.00,,2013-02-21 23:21:00,
2013-02-21 15:31:00,34.0,33.0,29.98,SW,226,1.0,6.0,95,0.00,,,0.00,,2013-02-21 23:31:00,
2013-02-21 15:41:00,34.0,33.0,29.98,SW,226,1.0,6.0,95,0.00,,,0.00,,2013-02-21 23:41:00,
2013-02-21 15:52:00,35.0,33.0,29.99,NW,322,0.0,1.0,94,0.00,,,0.00,,2013-02-21 23:52:00,
2013-02-21 16:01:00,35.0,33.0,29.99,SW,217,1.0,5.0,93,0.00,,,0.00,,2013-02-22 00:01:00,
2013-02-21 16:11:00,35.0,33.0,29.99,SW,217,1.0,5.0,93,0.00,,,0.00,,2013-02-22 00:11:00,
2013-02-21 16:21:00,35.0,33.0,29.99,SW,222,1.0,4.0,93,0.00,,,0.00,,2013-02-22 00:21:00,
2013-02-21 16:31:00,35.0,33.0,29.99,SE,128,1.0,3.0,92,0.00,,,0.00,,2013-02-22 00:31:00,
2013-02-21 16:41:00,35.0,33.0,29.99,SE,128,1.0,3.0,92,0.00,,,0.00,,2013-02-22 00:41:00,
2013-02-21 16:51:00,34.0,32.0,29.99,East,101,1.0,3.0,94,0.00,,,0.00,,2013-02-22 00:51:00,
2013-02-21 17:01:00,34.0,33.0,29.99,East,101,0.0,1.0,95,0.00,,,0.00,,2013-02-22 01:01:00,
2013-02-21 17:11:00,34.0,33.0,29.99,East,101,0.0,1.0,95,0.00,,,0.00,,2013-02-22 01:11:00,
2013-02-21 17:21:00,33.0,32.0,29.99,East,99,0.0,1.0,96,0.00,,,0.00,,2013-02-22 01:21:00,
2013-02-21 17:32:00,33.0,32.0,29.99,East,95,0.0,2.0,97,0.00,,,0.00,,2013-02-22 01:32:00,
2013-02-21 17:42:00,33.0,32.0,29.99,East,95,0.0,2.0,97,0.00,,,0.00,,2013-02-22 01:42:00,
2013-02-21 17:51:00,32.0,31.0,29.99,East,95,1.0,2.0,97,0.00,,,0.00,,2013-02-22 01:51:00,
2013-02-21 18:01:00,31.0,30.0,29.99,West,267,0.0,2.0,97,0.00,,,0.00,,2013-02-22 02:01:00,
2013-02-21 18:11:00,31.0,30.0,29.99,West,267,0.0,2.0,97,0.00,,,0.00,,2013-02-22 02:11:00,
2013-02-21 18:21:00,31.0,31.0,29.99,West,268,0.0,1.0,98,0.00,,,0.00,,2013-02-22 02:21:00,
2013-02-21 18:31:00,31.0,31.0,29.99,West,275,0.0,0.0,99,0.00,,,0.00,,2013-02-22 02:31:00,
2013-02-21 18:42:00,31.0,31.0,29.99,West,275,0.0,0.0,99,0.00,,,0.00,,2013-02-22 02:42:00,
2013-02-21 18:52:00,31.0,31.0,29.99,WNW,300,0.0,1.0,100,0.00,,,0.00,,2013-02-22 02:52:00,
2013-02-21 19:01:00,31.0,31.0,30.00,WNW,300,0.0,1.0,100,0.00,,,0.00,,2013-02-22 03:01:00,
2013-02-21 19:11:00,31.0,31.0,30.00,WNW,300,0.0,1.0,100,0.00,,,0.00,,2013-02-22 03:11:00,
2013-02-21 19:21:00,31.0,31.0,30.00,NNE,28,0.0,2.0,100,0.00,,,0.00,,2013-02-22 03:21:00,
2013-02-21 19:31:00,31.0,31.0,30.00,NNW,337,0.0,1.0,100,0.00,,,0.00,,2013-02-22 03:31:00,
2013-02-21 19:41:00,31.0,31.0,30.00,NNW,337,0.0,1.0,100,0.00,,,0.00,,2013-02-22 03:41:00,
2013-02-21 19:51:00,31.0,31.0,30.00,NNW,337,0.0,0.0,100,0.00,,,0.00,,2013-02-22 03:51:00,
2013-02-21 20:01:00,31.0,31.0,29.99,NNW,337,0.0,1.0,100,0.00,,,0.00,,2013-02-22 04:01:00,
2013-02-21 20:11:00,31.0,31.0,29.99,NNW,337,0.0,1.0,100,0.00,,,0.00,,2013-02-22 04:11:00,
2013-02-21 20:21:00,30.0,30.0,29.99,WSW,255,0.0,3.0,100,0.00,,,0.00,,2013-02-22 04:21:00,
2013-02-21 20:32:00,30.0,30.0,29.99,WSW,253,0.0,1.0,100,0.00,,,0.00,,2013-02-22 04:32:00,
2013-02-21 20:41:00,30.0,30.0,29.99,WSW,253,0.0,1.0,100,0.00,,,0.00,,2013-02-22 04:41:00,
2013-02-21 20:51:00,30.0,30.0,29.99,NNW,331,0.0,1.0,100,0.00,,,0.00,,2013-02-22 04:51:00,
2013-02-21 21:01:00,30.0,30.0,29.99,NNW,333,0.0,2.0,100,0.00,,,0.00,,2013-02-22 05:01:00,
2013-02-21 21:11:00,30.0,30.0,29.99,NNW,333,0.0,2.0,100,0.00,,,0.00,,2013-02-22 05:11:00,
2013-02-21 21:22:00,29.0,29.0,29.99,NNW,333,0.0,1.0,100,0.00,,,0.00,,2013-02-22 05:22:00,
2013-02-21 21:32:00,29.0,29.0,29.99,NW,305,0.0,1.0,100,0.00,,,0.00,,2013-02-22 05:32:00,
2013-02-21 21:41:00,29.0,29.0,29.99,NW,305,0.0,1.0,100,0.00,,,0.00,,2013-02-22 05:41:00,
2013-02-21 21:52:00,29.0,29.0,29.99,NW,305,0.0,1.0,100,0.00,,,0.00,,2013-02-22 05:52:00,
2013-02-21 22:01:00,28.0,28.0,30.00,NW,318,0.0,2.0,100,0.00,,,0.00,,2013-02-22 06:01:00,
2013-02-21 22:11:00,28.0,28.0,30.00,NW,318,0.0,2.0,100,0.00,,,0.00,,2013-02-22 06:11:00,
2013-02-21 22:21:00,29.0,29.0,30.00,NW,324,0.0,1.0,100,0.00,,,0.00,,2013-02-22 06:21:00,
2013-02-21 22:31:00,28.0,28.0,30.00,NW,326,0.0,1.0,100,0.00,,,0.00,,2013-02-22 06:31:00,
2013-02-21 22:41:00,28.0,28.0,30.00,NW,326,0.0,1.0,100,0.00,,,0.00,,2013-02-22 06:41:00,
2013-02-21 22:51:00,28.0,28.0,30.00,NW,326,0.0,0.0,100,0.00,,,0.00,,2013-02-22 06:51:00,
2013-02-21 23:01:00,28.0,28.0,29.99,NW,325,0.0,0.0,100,0.00,,,0.00,,2013-02-22 07:01:00,
2013-02-21 23:11:00,28.0,28.0,29.99,NW,325,0.0,0.0,100,0.00,,,0.00,,2013-02-22 07:11:00,
2013-02-21 23:21:00,26.0,26.0,30.00,NNW,327,0.0,2.0,100,0.00,,,0.00,,2013-02-22 07:21:00,
2013-02-21 23:31:00,27.0,27.0,30.00,NW,326,0.0,1.0,100,0.00,,,0.00,,2013-02-22 07:31:00,
2013-02-21 23:42:00,27.0,27.0,30.00,NW,326,0.0,1.0,100,0.00,,,0.00,,2013-02-22 07:42:00,
2013-02-21 23:51:00,27.0,27.0,29.99,NW,326,0.0,1.0,100,0.00,,,0.00,,2013-02-22 07:51:00,